Regional Weather Roundup
Issued by NWS

Home | Current Version | Previous Version | Text Only | Print | Product List | Glossary On
Versions: 1 2 3 4 5 6 7 8 9 10 11 12 13 14 15 16 17 18 19 20 21 22 23 24 25 26 27 28 29 30 31 32 33 34 35 36 37 38 39 40 41 42 43 44 45 46 47 48 49 50
000
ASUS43 KDMX 240906
RWRIA

WEATHER ROUNDUP FOR IOWA
NATIONAL WEATHER SERVICE DES MOINES IA
400 AM CDT FRI MAY 24 2019

NOTE: "FAIR" INDICATES FEW OR NO CLOUDS BELOW 12,000 FEET WITH NO
SIGNIFICANT WEATHER AND/OR OBSTRUCTIONS TO VISIBILITY.

* - THESE STATIONS ARE NOT NWS STATIONS...THUS NOT UNDER NWS
QUALITY CONTROL.  THEY ALSO DO NOT REPORT WEATHER SUCH
AS PRECIPITATION OR FOG.

IAZ001>003-012>014-020>022-031>034-043>046-241000-
   NORTHWEST IOWA

CITY           SKY/WX    TMP DP  RH WIND       PRES   REMARKS
CARROLL *      CLOUDY    55  54  94 E18G30    29.93F
CHEROKEE *     DRIZZLE   55  55 100 SE9G22    29.92F
DENISON *      CLOUDY    55  55 100 E20G28    29.92F
LE MARS *      CLOUDY    55  55 100 SE16      29.89F
SHELDON *        N/A     54  54 100 SE16      29.90F
SIOUX CITY     LGT RAIN  55  53  93 SE13G20   29.87F
SPENCER        CLOUDY    55  53  93 SE12      29.96R
STORM LAKE *   CLOUDY    54  54 100 SE18      29.90F FOG
$$

IAZ055>058-069>071-079>083-090>094-241000-
   SOUTHWEST IOWA

CITY           SKY/WX    TMP DP  RH WIND       PRES   REMARKS
ATLANTIC *     CLOUDY    59  59 100 E13       29.91F
AUDUBON *      CLOUDY    55  54  94 CALM      29.94F
CLARINDA *     CLOUDY    59  55  88 E8G14     29.96R
COUNCIL BLFS * CLOUDY    57  57 100 SE13      29.87F
CRESTON *      CLOUDY    55  55 100 E18G24    29.96F
HARLAN  *      LGT RAIN  57  57 100 E8        29.91F
LAMONI         LGT RAIN  59  56  89 NE9       29.97F
RED OAK *      LGT RAIN  59  57  94 E21       29.90F
SHENANDOAH *   CLOUDY    59  59 100 E15       29.90S
$$

IAZ047>049-059>061-072>074-084-241000-
   CENTRAL IOWA

CITY           SKY/WX    TMP DP  RH WIND       PRES   REMARKS
ANKENY *       CLOUDY    55  55 100 E14G23    30.02R
BOONE *        RAIN      55  55 100 E22       29.97F
CHARITON *     DRIZZLE   57  57 100 NE18G24   30.03F
DES MOINES     LGT RAIN  56  54  93 E17G26    30.00R
GRINNELL*      HVY RAIN  55  54  96 N15       30.11F
MARSHALLTOWN   RAIN      53  53 100 E21G30    30.04F FOG
PELLA *        RAIN      56  54  94 NE7       30.06F
PERRY *        CLOUDY    56  56 100 E22       29.96F
$$

IAZ004>006-015-016-023>025-035-036-241000-
   NORTH CENTRAL IOWA

CITY           SKY/WX    TMP DP  RH WIND       PRES   REMARKS
ALGONA *       LGT RAIN  54  54 100 SE18G29   29.92F
CLARION *      CLOUDY    54  54 100 E14       30.01S FOG
ESTHERVILLE    CLOUDY    51  51 100 E17G24    29.94F
FORT DODGE *   HVY RAIN  54  53  97 E21       29.97F
MASON CITY     RAIN      52  51  97 SE17      30.05F FOG
FOREST CITY *  RAIN      54  52  94 SE12      30.03F
IOWA FALLS *   RAIN      54  53  97 E17       30.01F
$$

IAZ007>011-017>019-026>030-037>042-050>054-066-241000-
   NORTHEAST IOWA

CITY           SKY/WX    TMP DP  RH WIND       PRES   REMARKS
CEDAR RAPIDS   RAIN      55  55 100 N14       30.11F FOG
CHARLES CITY * RAIN      52  52 100 SE16G22   30.08R
CLINTON *      TSTM      57  55  93 NE16      30.10R
DECORAH *      LGT RAIN  52  52 100 SE8       30.07F
DUBUQUE        RAIN      54  52  93 E9        30.12S FOG
MONTICELLO *   RAIN      55  55 100 CALM      30.15R
OELWEIN *      CLOUDY    54  54 100 VRB5G22   30.14R FOG
WATERLOO       RAIN      54  53  97 E9        30.09F FOG
$$

IAZ064-065-067-068-078-241000-
   EAST CENTRAL IOWA

CITY           SKY/WX    TMP DP  RH WIND       PRES   REMARKS
DAVENPORT      LGT RAIN  60  54  80 NE16      30.11R
IOWA CITY      LGT RAIN  58  55  90 NE14      30.08F
MT. PLEASANT * CLOUDY    64  57  77 CALM      30.02F
MUSCATINE *    LGT RAIN  61  55  82 NE15      30.08R
QUAD CITIES    CLOUDY    64  56  75 N8        30.06R
$$

IAZ062-063-075>077-085>089-095>099-241000-
   SOUTHEAST IOWA

CITY           SKY/WX    TMP DP  RH WIND       PRES   REMARKS
BURLINGTON     CLOUDY    65  56  72 E8        30.01S
FAIRFIELD *    CLOUDY    63  55  77 N10       30.04R
FORT MADISON * CLOUDY    64  57  77 E5        30.03S
KEOKUK *       CLOUDY    66  59  77 SE8       30.01R
OSKALOOSA *    CLOUDY    56  54  92 NE21G28   30.05F
CENTERVILLE *  FAIR      64  59  82 NW10      30.02R
OTTUMWA        CLOUDY    59  55  87 NE26G33   30.03S
WASHINGTON *   LGT RAIN  59  59 100 N14G24    30.08R
$$

ABBREVIATIONS USED IN REMARKS
   TC - TEMPERATURES IN CELSIUS
  WCI - WIND CHILL INDEX
   HX - HEAT INDEX
  VSB - VISIBILITY
$$





USA.gov is the U.S. government's official web portal to all federal, state and local government web resources and services.